Washington, MO

1:05 AM CDT on April 27, 2017 (GMT -0500)
Washington

Weather History for KFYG - March, 2013

Change the Weather History Date:

Wednesday, March 27, 2013

  Actual Average (KSUS) Record (KSUS)
Temperature  
Mean Temperature 32 °F -  
Max Temperature 44 °F 59 °F 84 °F (2012)
Min Temperature 19 °F 36 °F 19 °F (2001)
Degree Days  
Heating Degree Days 34    
Moisture  
Dew Point 24 °F    
Average Humidity 74    
Maximum Humidity 100    
Minimum Humidity 43    
Precipitation  
Precipitation 0.00 in - - ()
Sea Level Pressure  
Sea Level Pressure 30.35 in    
Wind  
Wind Speed 0 mph (SE)    
Max Wind Speed 6 mph    
Max Gust Speed -    
Visibility 9 miles    
Events Fog    
Averages and records for this station are not official NWS values.
T = Trace of Precipitation, MM = Missing Value Source: NWS Daily Summary

Daily Weather History Graph

Daily Weather History Graph

Search for Another Location

Airport or City:

Trip Planner

Search our weather history database for the weather conditions in past years. The results will help you decide how hot, cold, wet, or windy it might be!

Date:

Astronomy

Mar. 27, 2013 Rise Set
Actual Time 6:56 AM CDT 7:22 PM CDT
Civil Twilight 6:29 AM CDT 7:49 PM CDT
Nautical Twilight 5:58 AM CDT 8:20 PM CDT
Astronomical Twilight 5:26 AM CDT 8:52 PM CDT
Moon 8:05 PM CDT 6:47 AM CDT
Length of Visible Light 13h 19m
Length of Day
12h 26m
Full, 100% of the Moon is Illuminated
Mar 27
Full
Apr 2
Last Quarter
Apr 10
New
Apr 18
First Quarter
Apr 25
Full

Hourly Weather History & Observations

Time (CDT) Temp. Windchill Dew Point Humidity Pressure Visibility Wind Dir Wind Speed Gust Speed Precip Events Conditions
12:15 AM 24.8 °F - 24.8 °F 100% 30.36 in 10.0 mi Calm Calm - N/A   Partly Cloudy
12:35 AM 24.8 °F - 24.8 °F 100% 30.36 in 10.0 mi Calm Calm - N/A   Partly Cloudy
12:55 AM 24.8 °F - 23.0 °F 93% 30.36 in 10.0 mi Calm Calm - N/A   Scattered Clouds
1:15 AM 24.8 °F - 23.0 °F 93% 30.37 in 10.0 mi Calm Calm - N/A   Partly Cloudy
1:35 AM 24.8 °F - 23.0 °F 93% 30.37 in 10.0 mi Calm Calm - N/A   Partly Cloudy
1:55 AM 23.0 °F - 23.0 °F 100% 30.36 in 10.0 mi Calm Calm - N/A   Scattered Clouds
2:15 AM 23.0 °F - 23.0 °F 100% 30.36 in 10.0 mi Calm Calm - N/A   Mostly Cloudy
2:35 AM 23.0 °F - 23.0 °F 100% 30.35 in 10.0 mi Calm Calm - N/A   Scattered Clouds
2:55 AM 23.0 °F - 23.0 °F 100% 30.35 in 10.0 mi Calm Calm - N/A   Scattered Clouds
3:15 AM 23.0 °F - 23.0 °F 100% 30.36 in 10.0 mi Calm Calm - N/A   Mostly Cloudy
3:35 AM 23.0 °F - 23.0 °F 100% 30.34 in 10.0 mi Calm Calm - N/A   Overcast
3:55 AM 23.0 °F - 21.2 °F 93% 30.34 in 10.0 mi Calm Calm - N/A   Mostly Cloudy
4:15 AM 21.2 °F - 21.2 °F 100% 30.35 in 10.0 mi Calm Calm - N/A   Scattered Clouds
4:35 AM 21.2 °F - 21.2 °F 100% 30.35 in 10.0 mi Calm Calm - N/A   Mostly Cloudy
4:55 AM 19.4 °F - 19.4 °F 100% 30.36 in 10.0 mi Calm Calm - N/A   Mostly Cloudy
5:15 AM 23.0 °F - 23.0 °F 100% 30.36 in 10.0 mi Calm Calm - N/A   Mostly Cloudy
5:35 AM 21.2 °F - 21.2 °F 100% 30.36 in 10.0 mi Calm Calm - N/A   Overcast
5:55 AM 19.4 °F - 19.4 °F 100% 30.36 in 10.0 mi Calm Calm - N/A   Overcast
6:15 AM 19.4 °F - 19.4 °F 100% 30.37 in 10.0 mi Calm Calm - N/A   Mostly Cloudy
6:35 AM 19.4 °F - 19.4 °F 100% 30.37 in 10.0 mi Calm Calm - N/A   Mostly Cloudy
6:55 AM 19.4 °F - 19.4 °F 100% 30.37 in 10.0 mi Calm Calm - N/A   Mostly Cloudy
7:15 AM 19.4 °F - 19.4 °F 100% 30.37 in 5.0 mi Calm Calm - N/A   Scattered Clouds
7:35 AM 19.4 °F - 19.4 °F 100% 30.37 in 0.2 mi Calm Calm - N/A Fog Light Freezing Fog
7:55 AM 19.4 °F - 19.4 °F 100% 30.39 in 0.2 mi Calm Calm - N/A Fog Light Freezing Fog
8:15 AM 21.2 °F - 19.4 °F 93% 30.39 in 0.2 mi Calm Calm - N/A Fog Light Freezing Fog
8:35 AM 23.0 °F - 23.0 °F 100% 30.39 in 0.2 mi Calm Calm - N/A Fog Light Freezing Fog
8:55 AM 23.0 °F - 23.0 °F 100% 30.39 in 0.5 mi Calm Calm - N/A Fog Light Freezing Fog
9:15 AM 24.8 °F - 24.8 °F 100% 30.40 in 2.5 mi Calm Calm - N/A   Partly Cloudy
9:35 AM 24.8 °F - 24.8 °F 100% 30.40 in 5.0 mi Calm Calm - N/A   Clear
9:55 AM 26.6 °F - 26.6 °F 100% 30.40 in 9.0 mi Calm Calm - N/A   Clear
10:15 AM 28.4 °F - 28.4 °F 100% 30.40 in 10.0 mi Calm Calm - N/A   Clear
10:35 AM 32.0 °F - 26.6 °F 80% 30.39 in 10.0 mi Calm Calm - N/A   Clear
10:55 AM 32.0 °F - 26.6 °F 80% 30.39 in 10.0 mi Calm Calm - N/A   Clear
11:15 AM 35.6 °F 31.7 °F 24.8 °F 65% 30.39 in 10.0 mi SE 4.6 mph - N/A   Clear
11:35 AM 37.4 °F 34.9 °F 24.8 °F 60% 30.39 in 10.0 mi SSE 3.5 mph - N/A   Clear
11:55 AM 37.4 °F - 24.8 °F 60% 30.40 in 10.0 mi Calm Calm - N/A   Clear
12:15 PM 39.2 °F - 23.0 °F 52% 30.39 in 10.0 mi Calm Calm - N/A   Clear
12:35 PM 39.2 °F - 23.0 °F 52% 30.39 in 10.0 mi Calm Calm - N/A   Clear
12:55 PM 41.0 °F - 23.0 °F 49% 30.39 in 10.0 mi Calm Calm - N/A   Clear
1:15 PM 41.0 °F - 24.8 °F 53% 30.38 in 10.0 mi Calm Calm - N/A   Clear
1:35 PM 41.0 °F - 24.8 °F 53% 30.37 in 10.0 mi Calm Calm - N/A   Clear
1:55 PM 41.0 °F - 24.8 °F 53% 30.37 in 10.0 mi Calm Calm - N/A   Clear
2:15 PM 41.0 °F - 24.8 °F 53% 30.36 in 10.0 mi Calm Calm - N/A   Clear
2:35 PM 42.8 °F - 24.8 °F 49% 30.35 in 10.0 mi Calm Calm - N/A   Clear
2:55 PM 42.8 °F - 24.8 °F 49% 30.34 in 10.0 mi Calm Calm - N/A   Clear
3:15 PM 42.8 °F - 24.8 °F 49% 30.33 in 10.0 mi Calm Calm - N/A   Clear
3:35 PM 44.6 °F 43.1 °F 24.8 °F 46% 30.32 in 10.0 mi SSE 3.5 mph - N/A   Clear
3:55 PM 44.6 °F 42.2 °F 24.8 °F 46% 30.32 in 10.0 mi ESE 4.6 mph - N/A   Clear
4:15 PM 44.6 °F - 24.8 °F 46% 30.31 in 10.0 mi Calm Calm - N/A   Clear
4:35 PM 44.6 °F - 24.8 °F 46% 30.31 in 10.0 mi Calm Calm - N/A   Clear
4:55 PM 44.6 °F 43.1 °F 26.6 °F 49% 30.30 in 10.0 mi SSE 3.5 mph - N/A   Clear
5:15 PM 44.6 °F - 24.8 °F 46% 30.30 in 10.0 mi Calm Calm - N/A   Clear
5:35 PM 44.6 °F - 24.8 °F 46% 30.30 in 10.0 mi Calm Calm - N/A   Partly Cloudy
5:55 PM 44.6 °F 43.1 °F 24.8 °F 46% 30.29 in 10.0 mi ESE 3.5 mph - N/A   Clear
6:15 PM 44.6 °F - 24.8 °F 46% 30.29 in 10.0 mi Calm Calm - N/A   Clear
6:35 PM 44.6 °F - 23.0 °F 43% 30.28 in 10.0 mi Calm Calm - N/A   Clear
6:55 PM 44.6 °F - 24.8 °F 46% 30.28 in 10.0 mi Calm Calm - N/A   Partly Cloudy
7:15 PM 44.6 °F - 24.8 °F 46% 30.28 in 10.0 mi Calm Calm - N/A   Scattered Clouds
7:35 PM 42.8 °F - 24.8 °F 49% 30.28 in 10.0 mi Calm Calm - N/A   Overcast
7:55 PM 42.8 °F - 24.8 °F 49% 30.29 in 10.0 mi Calm Calm - N/A   Overcast
8:15 PM 42.8 °F 40.1 °F 26.6 °F 53% 30.29 in 10.0 mi East 4.6 mph - N/A   Overcast
8:35 PM 41.0 °F - 26.6 °F 57% 30.29 in 10.0 mi Calm Calm - N/A   Overcast
8:55 PM 41.0 °F - 26.6 °F 57% 30.29 in 10.0 mi Calm Calm - N/A   Overcast
9:15 PM 41.0 °F - 28.4 °F 61% 30.30 in 10.0 mi Calm Calm - N/A   Overcast
9:35 PM 41.0 °F - 28.4 °F 61% 30.31 in 10.0 mi Calm Calm - N/A   Overcast
9:55 PM 39.2 °F 37.0 °F 28.4 °F 65% 30.33 in 10.0 mi NW 3.5 mph - N/A   Overcast
10:15 PM 39.2 °F - 28.4 °F 65% 30.33 in 10.0 mi Calm Calm - N/A   Overcast
10:35 PM 39.2 °F - 28.4 °F 65% 30.33 in 10.0 mi Calm Calm - N/A   Overcast
10:55 PM 39.2 °F - 28.4 °F 65% 30.32 in 10.0 mi Calm Calm - N/A   Overcast
11:15 PM 39.2 °F 35.0 °F 28.4 °F 65% 30.32 in 10.0 mi ESE 5.8 mph - N/A   Overcast
11:35 PM 39.2 °F - 26.6 °F 61% 30.32 in 10.0 mi Calm Calm - N/A   Overcast
11:55 PM 39.2 °F 37.0 °F 26.6 °F 61% 30.31 in 10.0 mi SE 3.5 mph - N/A   Overcast